Torna al catalogo

KUIPER-00133

AttivoComunicazioniLEO
NORAD 65764·PAYLOAD·🇺🇸 United States

Lanciato Sep 25, 2025 da Cape Canaveral Space Force Station

Loading…

Prossimi Passaggi (prossime 24 ore)

TLE

AggiornatoSource: CelesTrak SupGP

Epoca: Sep 14, 2026, 23:15 UTC

1 65764C 25217C   26257.96893519  .00002483  00000+0  32509-3 0  2572
2 65764  51.9028 296.1942 0000537  83.0355 151.9857 14.79920304    13

Traccia KUIPER-00133 in tempo reale con AllMySat

Download on the App Store